Springfield, IL

7:37 AM CST on December 09, 2019 (GMT -0600)
Capital

Weather History for KSPI - October, 2019

Change the Weather History Date:

Tuesday, October 8, 2019

  Actual Average Record
Temperature  
Mean Temperature 57 °F 58 °F  
Max Temperature 73 °F 70 °F 90 °F (1939)
Min Temperature 41 °F 46 °F 25 °F (1952)
Degree Days  
Heating Degree Days 8 8  
Month to date heating degree days 37 59  
Since 1 July heating degree days 38 140  
Cooling Degree Days 0 1  
Month to date cooling degree days 32 10  
Year to date cooling degree days 1309 1109  
Growing Degree Days 8 (Base 50)    
Moisture  
Dew Point 42 °F    
Average Humidity 63    
Maximum Humidity 96    
Minimum Humidity 29    
Precipitation  
Precipitation 0.00 in 0.10 in 2.08 in (2009)
Month to date precipitation 0.21 0.79  
Year to date precipitation 40.76 29.34  
Snow  
Snow 0.00 in 0.00 in T in (1944)
Month to date snowfall 0.0 0.0  
Since 1 July snowfall 0.0 0.0  
Since 1 September snowfall 0.0 0.0  
Snow Depth 0.00 in    
Sea Level Pressure  
Sea Level Pressure 30.18 in    
Wind  
Wind Speed 4 mph (SE)    
Max Wind Speed 12 mph    
Max Gust Speed 16 mph    
Visibility 8 miles    
Events      
T = Trace of Precipitation, MM = Missing Value Source: NWS Daily Summary

Daily Weather History Graph

Daily Weather History Graph

Search for Another Location

Airport or City:

Astronomy

Oct. 08, 2019 Rise Set
Actual Time 7:01 AM CDT 6:30 PM CDT
Civil Twilight 6:34 AM CDT 6:57 PM CDT
Nautical Twilight 6:03 AM CDT 7:28 PM CDT
Astronomical Twilight 5:31 AM CDT 7:59 PM CDT
Moon 4:28 PM CDT (10/8) 1:51 AM CDT (10/8)
Length of Visible Light 12h 22m
Length of Day
11h 28m
Waxing Gibbous, 78% of the Moon is Illuminated
Oct 8
Waxing Gibbous
Oct 13
Full
Oct 21
Last Quarter
Oct 27
New
Nov 4
First Quarter

Hourly Weather History & Observations

Time (CDT) Temp. Dew Point Humidity Pressure Visibility Wind Dir Wind Speed Gust Speed Precip Events Conditions
12:52 AM 45.0 °F 42.1 °F 90% 30.21 in 10.0 mi Calm Calm - N/A   Clear
1:52 AM 44.1 °F 41.0 °F 89% 30.21 in 10.0 mi Calm Calm - N/A   Clear
2:09 AM 44.1 °F 42.1 °F 93% 30.21 in 1.8 mi Calm Calm - N/A   Clear
2:16 AM 44.1 °F 42.1 °F 93% 30.21 in 1.2 mi Calm Calm - N/A   Clear
2:20 AM 43.0 °F 42.1 °F 97% 30.21 in 2.0 mi Calm Calm - N/A   Clear
2:31 AM 44.1 °F 42.1 °F 93% 30.21 in 9.0 mi Calm Calm - N/A   Clear
2:52 AM 43.0 °F 39.9 °F 89% 30.20 in 10.0 mi Calm Calm - N/A   Clear
3:30 AM 42.1 °F 39.0 °F 89% 30.21 in 1.5 mi Calm Calm - N/A   Clear
3:34 AM 42.1 °F 39.0 °F 89% 30.21 in 0.8 mi Calm Calm - N/A   Clear
3:40 AM 42.1 °F 39.9 °F 92% 30.21 in 1.8 mi Calm Calm - N/A   Clear
3:42 AM 42.1 °F 39.9 °F 92% 30.21 in 3.0 mi Calm Calm - N/A   Clear
3:52 AM 43.0 °F 39.9 °F 89% 30.21 in 10.0 mi Calm Calm - N/A   Clear
4:52 AM 43.0 °F 41.0 °F 93% 30.22 in 10.0 mi Calm Calm - N/A   Clear
5:52 AM 43.0 °F 39.9 °F 89% 30.22 in 10.0 mi Calm Calm - N/A   Clear
6:52 AM 43.0 °F 39.9 °F 89% 30.22 in 10.0 mi Calm Calm - N/A   Clear
7:52 AM 46.9 °F 43.0 °F 86% 30.24 in 10.0 mi NE 3.5 mph - N/A   Clear
8:52 AM 55.9 °F 46.9 °F 72% 30.24 in 10.0 mi East 4.6 mph - N/A   Clear
9:52 AM 63.0 °F 45.0 °F 52% 30.24 in 10.0 mi SSE 5.8 mph - N/A   Clear
10:52 AM 66.0 °F 43.0 °F 43% 30.23 in 10.0 mi SE 8.1 mph - N/A   Clear
11:52 AM 70.0 °F 44.1 °F 39% 30.22 in 10.0 mi SE 5.8 mph - N/A   Clear
12:52 PM 72.0 °F 41.0 °F 33% 30.19 in 10.0 mi SSE 5.8 mph - N/A   Clear
1:52 PM 72.0 °F 39.9 °F 31% 30.16 in 10.0 mi South 5.8 mph - N/A   Clear
2:52 PM 73.0 °F 39.9 °F 30% 30.14 in 10.0 mi SE 6.9 mph - N/A   Clear
3:52 PM 73.0 °F 39.0 °F 29% 30.12 in 10.0 mi ESE 10.4 mph - N/A   Clear
4:52 PM 72.0 °F 39.9 °F 31% 30.11 in 10.0 mi SE 6.9 mph - N/A   Clear
5:52 PM 68.0 °F 41.0 °F 37% 30.11 in 10.0 mi SE 6.9 mph - N/A   Clear
6:52 PM 62.1 °F 44.1 °F 52% 30.11 in 10.0 mi ESE 5.8 mph - N/A   Clear
7:52 PM 57.0 °F 45.0 °F 64% 30.12 in 10.0 mi ESE 5.8 mph - N/A   Clear
8:52 PM 55.0 °F 44.1 °F 67% 30.12 in 10.0 mi SE 5.8 mph - N/A   Clear
9:52 PM 50.0 °F 43.0 °F 77% 30.12 in 10.0 mi Calm Calm - N/A   Clear
10:52 PM 48.9 °F 44.1 °F 83% 30.12 in 10.0 mi Calm Calm - N/A   Clear
11:52 PM 48.0 °F 43.0 °F 83% 30.12 in 10.0 mi Calm Calm - N/A   Clear